Retour au catalogue

IRIDIUM 118

ActifCommunicationsPO
NORAD 42807·PAYLOAD·🇺🇸 United States

Lancé Jun 25, 2017 depuis Vandenberg Space Force Base

Loading…

Prochains Passages (prochaines 24 heures)

TLE

FraisSource: CelesTrak SupGP

Époque: Sep 15, 2026, 01:17 UTC

1 42807C 17039E   26258.05381944  .00003213  00000+0  11487-2 0  2587
2 42807  86.3976 316.0916 0002255  97.4033 355.3735 14.34214924    14

Suivez IRIDIUM 118 en temps réel avec AllMySat

Download on the App Store